Wetterdaten: Montag, 08.10.2012
Datum Zeit Temp. I. Temp. A. Boden 5 cm Feuchte A. Sonne Luftdruck Regen Wind Sonnenschein
08.10.2012 00:01 22,1 C 8,9 C 10,0 C 94 % 0 % 1016 hPa 0,0 l/m 3,3 km/h (1 Bft) 0 min
08.10.2012 00:04 22,2 C 8,9 C 9,9 C 94 % 0 % 1017 hPa 0,0 l/m 5,9 km/h (2 Bft) 0 min
08.10.2012 00:07 22,1 C 8,9 C 9,9 C 94 % 0 % 1017 hPa 0,0 l/m 5,0 km/h (1 Bft) 0 min
08.10.2012 00:10 22,1 C 8,9 C 10,0 C 94 % 0 % 1017 hPa 0,0 l/m 4,5 km/h (1 Bft) 0 min
08.10.2012 00:13 22,1 C 8,9 C 10,0 C 94 % 0 % 1017 hPa 0,0 l/m 6,0 km/h (2 Bft) 0 min
08.10.2012 00:16 22,1 C 8,8 C 9,9 C 94 % 0 % 1017 hPa 0,0 l/m 4,0 km/h (1 Bft) 0 min
08.10.2012 00:19 22,1 C 8,8 C 9,8 C 94 % 0 % 1016 hPa 0,0 l/m 4,9 km/h (1 Bft) 0 min
08.10.2012 00:22 22,1 C 8,8 C 9,8 C 94 % 0 % 1016 hPa 0,0 l/m 3,5 km/h (1 Bft) 0 min
08.10.2012 00:25 22,1 C 8,8 C 9,8 C 94 % 0 % 1016 hPa 0,0 l/m 3,6 km/h (1 Bft) 0 min
08.10.2012 00:28 22,1 C 8,8 C 9,7 C 94 % 0 % 1016 hPa 0,0 l/m 3,6 km/h (1 Bft) 0 min
08.10.2012 00:31 22,1 C 8,7 C 9,7 C 94 % 0 % 1016 hPa 0,0 l/m 4,2 km/h (1 Bft) 0 min
08.10.2012 00:34 22,1 C 8,7 C 9,6 C 94 % 0 % 1017 hPa 0,0 l/m 5,2 km/h (1 Bft) 0 min
08.10.2012 00:37 22,1 C 8,7 C 9,7 C 94 % 0 % 1017 hPa 0,0 l/m 5,9 km/h (2 Bft) 0 min
08.10.2012 00:40 22,2 C 8,6 C 9,6 C 94 % 0 % 1017 hPa 0,0 l/m 8,5 km/h (2 Bft) 0 min
08.10.2012 00:43 22,1 C 8,6 C 9,5 C 94 % 0 % 1016 hPa 0,0 l/m 10,8 km/h (2 Bft) 0 min
08.10.2012 00:46 22,1 C 8,6 C 9,5 C 94 % 0 % 1016 hPa 0,0 l/m 9,2 km/h (2 Bft) 0 min
08.10.2012 00:49 22,1 C 8,6 C 9,5 C 94 % 0 % 1017 hPa 0,0 l/m 9,2 km/h (2 Bft) 0 min
08.10.2012 00:52 22,1 C 8,6 C 9,5 C 93 % 0 % 1017 hPa 0,0 l/m 6,8 km/h (2 Bft) 0 min
08.10.2012 00:55 22,1 C 8,6 C 9,5 C 93 % 0 % 1017 hPa 0,0 l/m 10,7 km/h (2 Bft) 0 min
08.10.2012 00:58 22,1 C 8,6 C 9,6 C 93 % 0 % 1017 hPa 0,0 l/m 8,5 km/h (2 Bft) 0 min
08.10.2012 01:01 22,1 C 8,6 C 9,5 C 93 % 0 % 1017 hPa 0,0 l/m 8,0 km/h (2 Bft) 0 min
08.10.2012 01:04 22,1 C 8,6 C 9,6 C 93 % 0 % 1017 hPa 0,0 l/m 8,3 km/h (2 Bft) 0 min
08.10.2012 01:07 22,1 C 8,6 C 9,5 C 92 % 0 % 1017 hPa 0,0 l/m 9,2 km/h (2 Bft) 0 min
08.10.2012 01:10 22,1 C 8,6 C 9,5 C 92 % 0 % 1017 hPa 0,0 l/m 9,0 km/h (2 Bft) 0 min
08.10.2012 01:13 22,1 C 8,6 C 9,4 C 91 % 0 % 1017 hPa 0,0 l/m 7,9 km/h (2 Bft) 0 min
08.10.2012 01:16 22,1 C 8,5 C 9,5 C 91 % 0 % 1017 hPa 0,0 l/m 11,9 km/h (2 Bft) 0 min
08.10.2012 01:19 22,1 C 8,5 C 9,4 C 91 % 0 % 1017 hPa 0,0 l/m 7,8 km/h (2 Bft) 0 min
08.10.2012 01:22 22,1 C 8,5 C 9,4 C 90 % 0 % 1017 hPa 0,0 l/m 9,0 km/h (2 Bft) 0 min
08.10.2012 01:25 22,1 C 8,5 C 9,5 C 90 % 0 % 1017 hPa 0,0 l/m 8,2 km/h (2 Bft) 0 min
08.10.2012 01:28 22,1 C 8,5 C 9,4 C 90 % 0 % 1017 hPa 0,0 l/m 10,0 km/h (2 Bft) 0 min
08.10.2012 01:31 22,1 C 8,5 C 9,4 C 90 % 0 % 1017 hPa 0,0 l/m 8,5 km/h (2 Bft) 0 min
08.10.2012 01:34 22,1 C 8,5 C 9,4 C 90 % 0 % 1017 hPa 0,0 l/m 7,4 km/h (2 Bft) 0 min
08.10.2012 01:37 22,1 C 8,5 C 9,5 C 89 % 0 % 1017 hPa 0,0 l/m 7,5 km/h (2 Bft) 0 min
08.10.2012 01:40 22,1 C 8,5 C 9,6 C 89 % 0 % 1017 hPa 0,0 l/m 6,6 km/h (2 Bft) 0 min
08.10.2012 01:43 22,1 C 8,5 C 9,4 C 89 % 0 % 1017 hPa 0,0 l/m 7,9 km/h (2 Bft) 0 min
08.10.2012 01:46 22,1 C 8,4 C 9,4 C 89 % 0 % 1017 hPa 0,0 l/m 8,5 km/h (2 Bft) 0 min
08.10.2012 01:49 22,1 C 8,4 C 9,4 C 89 % 0 % 1017 hPa 0,0 l/m 9,5 km/h (2 Bft) 0 min
08.10.2012 01:52 22,1 C 8,4 C 9,4 C 89 % 0 % 1017 hPa 0,0 l/m 9,5 km/h (2 Bft) 0 min
08.10.2012 01:55 22,1 C 8,4 C 9,4 C 89 % 0 % 1017 hPa 0,0 l/m 12,2 km/h (2 Bft) 0 min
08.10.2012 01:58 22,1 C 8,4 C 9,2 C 89 % 0 % 1017 hPa 0,0 l/m 9,9 km/h (2 Bft) 0 min
08.10.2012 02:01 22,1 C 8,4 C 9,3 C 89 % 0 % 1017 hPa 0,0 l/m 8,7 km/h (2 Bft) 0 min
08.10.2012 02:04 22,1 C 8,4 C 9,4 C 89 % 0 % 1017 hPa 0,0 l/m 6,7 km/h (2 Bft) 0 min
08.10.2012 02:07 22,1 C 8,4 C 9,4 C 89 % 0 % 1017 hPa 0,0 l/m 8,7 km/h (2 Bft) 0 min
08.10.2012 02:10 22,1 C 8,3 C 9,3 C 89 % 0 % 1017 hPa 0,0 l/m 7,5 km/h (2 Bft) 0 min
08.10.2012 02:13 22,1 C 8,3 C 9,2 C 89 % 0 % 1017 hPa 0,0 l/m 8,1 km/h (2 Bft) 0 min
08.10.2012 02:16 22,1 C 8,3 C 9,2 C 89 % 0 % 1017 hPa 0,0 l/m 7,8 km/h (2 Bft) 0 min
08.10.2012 02:19 22,1 C 8,2 C 9,2 C 90 % 0 % 1017 hPa 0,0 l/m 7,0 km/h (2 Bft) 0 min
08.10.2012 02:22 22,1 C 8,2 C 9,4 C 90 % 0 % 1017 hPa 0,0 l/m 5,5 km/h (1 Bft) 0 min
08.10.2012 02:25 22,1 C 8,2 C 9,4 C 90 % 0 % 1017 hPa 0,0 l/m 6,7 km/h (2 Bft) 0 min
08.10.2012 02:28 22,0 C 8,2 C 9,3 C 90 % 0 % 1017 hPa 0,0 l/m 6,8 km/h (2 Bft) 0 min
08.10.2012 02:31 22,0 C 8,2 C 9,3 C 90 % 0 % 1017 hPa 0,0 l/m 5,9 km/h (2 Bft) 0 min
08.10.2012 02:34 22,0 C 8,2 C 9,3 C 90 % 0 % 1017 hPa 0,0 l/m 4,8 km/h (1 Bft) 0 min
08.10.2012 02:37 22,0 C 8,2 C 9,3 C 90 % 0 % 1017 hPa 0,0 l/m 4,8 km/h (1 Bft) 0 min
08.10.2012 02:40 22,0 C 8,2 C 9,2 C 90 % 0 % 1017 hPa 0,0 l/m 8,0 km/h (2 Bft) 0 min
08.10.2012 02:43 22,0 C 8,1 C 9,2 C 90 % 0 % 1017 hPa 0,0 l/m 5,2 km/h (1 Bft) 0 min
08.10.2012 02:46 22,0 C 8,2 C 9,2 C 90 % 0 % 1017 hPa 0,0 l/m 5,7 km/h (1 Bft) 0 min
08.10.2012 02:49 22,0 C 8,1 C 9,3 C 90 % 0 % 1017 hPa 0,0 l/m 6,4 km/h (2 Bft) 0 min
08.10.2012 02:52 22,0 C 8,1 C 9,3 C 90 % 0 % 1017 hPa 0,0 l/m 6,7 km/h (2 Bft) 0 min
08.10.2012 02:56 22,0 C 8,1 C 9,3 C 90 % 0 % 1017 hPa 0,0 l/m 4,5 km/h (1 Bft) 0 min
08.10.2012 02:59 22,0 C 8,1 C 9,4 C 90 % 0 % 1017 hPa 0,0 l/m 4,8 km/h (1 Bft) 0 min
08.10.2012 03:02 22,0 C 8,1 C 9,4 C 90 % 0 % 1017 hPa 0,0 l/m 4,8 km/h (1 Bft) 0 min
08.10.2012 03:05 22,0 C 8,1 C 9,4 C 90 % 0 % 1017 hPa 0,0 l/m 4,8 km/h (1 Bft) 0 min
08.10.2012 03:08 22,0 C 8,1 C 9,4 C 90 % 0 % 1017 hPa 0,0 l/m 4,8 km/h (1 Bft) 0 min
08.10.2012 03:11 22,0 C 8,1 C 9,4 C 90 % 0 % 1017 hPa 0,0 l/m 4,8 km/h (1 Bft) 0 min
08.10.2012 03:14 22,0 C 8,1 C 9,4 C 90 % 0 % 1017 hPa 0,0 l/m 4,8 km/h (1 Bft) 0 min
08.10.2012 03:17 22,0 C 8,1 C 9,4 C 90 % 0 % 1017 hPa 0,0 l/m 7,3 km/h (2 Bft) 0 min
08.10.2012 03:20 22,0 C 8,1 C 9,4 C 90 % 0 % 1017 hPa 0,0 l/m 7,3 km/h (2 Bft) 0 min
08.10.2012 03:23 22,0 C 8,1 C 9,4 C 90 % 0 % 1017 hPa 0,0 l/m 4,9 km/h (1 Bft) 0 min
08.10.2012 03:26 22,0 C 8,1 C 9,4 C 90 % 0 % 1017 hPa 0,0 l/m 5,5 km/h (1 Bft) 0 min
08.10.2012 03:29 22,0 C 8,1 C 9,4 C 90 % 0 % 1017 hPa 0,0 l/m 3,8 km/h (1 Bft) 0 min
08.10.2012 03:32 22,0 C 8,1 C 9,4 C 90 % 0 % 1017 hPa 0,0 l/m 5,6 km/h (1 Bft) 0 min
08.10.2012 03:35 22,0 C 8,1 C 9,4 C 90 % 0 % 1017 hPa 0,0 l/m 3,4 km/h (1 Bft) 0 min
08.10.2012 03:38 22,0 C 8,1 C 9,4 C 90 % 0 % 1017 hPa 0,0 l/m 4,0 km/h (1 Bft) 0 min
08.10.2012 03:41 22,0 C 8,1 C 9,4 C 90 % 0 % 1017 hPa 0,0 l/m 0,2 km/h (0 Bft) 0 min
08.10.2012 03:44 22,0 C 8,1 C 9,4 C 90 % 0 % 1017 hPa 0,0 l/m 0,3 km/h (0 Bft) 0 min
08.10.2012 03:47 22,0 C 8,1 C 9,4 C 90 % 0 % 1017 hPa 0,0 l/m 0,3 km/h (0 Bft) 0 min
08.10.2012 03:50 22,0 C 7,9 C 9,5 C 91 % 0 % 1017 hPa 0,0 l/m 1,7 km/h (1 Bft) 0 min
08.10.2012 03:53 22,0 C 7,9 C 9,6 C 91 % 0 % 1017 hPa 0,0 l/m 1,2 km/h (1 Bft) 0 min
08.10.2012 03:56 22,0 C 7,9 C 9,6 C 91 % 0 % 1017 hPa 0,0 l/m 0,7 km/h (0 Bft) 0 min
08.10.2012 03:59 22,0 C 7,9 C 9,5 C 91 % 0 % 1017 hPa 0,0 l/m 3,8 km/h (1 Bft) 0 min
08.10.2012 04:02 22,0 C 7,9 C 9,3 C 91 % 0 % 1017 hPa 0,0 l/m 4,2 km/h (1 Bft) 0 min
08.10.2012 04:05 22,0 C 7,9 C 9,4 C 91 % 0 % 1017 hPa 0,0 l/m 6,7 km/h (2 Bft) 0 min
08.10.2012 04:08 22,0 C 7,8 C 9,4 C 91 % 0 % 1017 hPa 0,0 l/m 3,4 km/h (1 Bft) 0 min
08.10.2012 04:11 22,0 C 7,8 C 9,5 C 91 % 0 % 1017 hPa 0,0 l/m 2,9 km/h (1 Bft) 0 min
08.10.2012 04:14 22,0 C 7,8 C 9,6 C 91 % 0 % 1017 hPa 0,0 l/m 1,6 km/h (1 Bft) 0 min
08.10.2012 04:17 22,1 C 7,8 C 9,7 C 91 % 0 % 1017 hPa 0,0 l/m 0,9 km/h (0 Bft) 0 min
08.10.2012 04:20 22,1 C 7,8 C 9,6 C 91 % 0 % 1017 hPa 0,0 l/m 0,0 km/h (0 Bft) 0 min
08.10.2012 04:23 22,1 C 7,8 C 9,5 C 91 % 0 % 1017 hPa 0,0 l/m 0,0 km/h (0 Bft) 0 min
08.10.2012 04:26 22,1 C 7,8 C 9,6 C 92 % 0 % 1017 hPa 0,0 l/m 0,0 km/h (0 Bft) 0 min
08.10.2012 04:29 22,2 C 7,8 C 9,6 C 92 % 0 % 1017 hPa 0,0 l/m 0,0 km/h (0 Bft) 0 min
08.10.2012 04:32 22,2 C 7,8 C 9,3 C 92 % 0 % 1017 hPa 0,0 l/m 0,0 km/h (0 Bft) 0 min
08.10.2012 04:35 22,2 C 7,8 C 8,9 C 92 % 0 % 1017 hPa 0,0 l/m 0,0 km/h (0 Bft) 0 min
08.10.2012 04:38 22,2 C 7,8 C 9,2 C 91 % 0 % 1017 hPa 0,0 l/m 0,0 km/h (0 Bft) 0 min
08.10.2012 04:41 22,2 C 7,8 C 9,4 C 91 % 0 % 1017 hPa 0,0 l/m 0,0 km/h (0 Bft) 0 min
08.10.2012 04:44 22,2 C 7,7 C 9,1 C 91 % 0 % 1017 hPa 0,0 l/m 0,0 km/h (0 Bft) 0 min
08.10.2012 04:47 22,2 C 7,7 C 9,3 C 92 % 0 % 1017 hPa 0,0 l/m 0,0 km/h (0 Bft) 0 min
08.10.2012 04:50 22,2 C 7,7 C 9,5 C 92 % 0 % 1017 hPa 0,0 l/m 0,0 km/h (0 Bft) 0 min
08.10.2012 04:53 22,2 C 7,7 C 9,3 C 92 % 0 % 1017 hPa 0,0 l/m 0,0 km/h (0 Bft) 0 min
08.10.2012 04:56 22,2 C 7,7 C 9,3 C 92 % 0 % 1017 hPa 0,0 l/m 0,4 km/h (0 Bft) 0 min
08.10.2012 04:59 22,2 C 7,6 C 8,3 C 91 % 0 % 1017 hPa 0,0 l/m 3,8 km/h (1 Bft) 0 min
08.10.2012 05:02 22,2 C 7,6 C 8,1 C 91 % 0 % 1017 hPa 0,0 l/m 0,0 km/h (0 Bft) 0 min
08.10.2012 05:05 22,2 C 7,5 C 8,0 C 91 % 0 % 1017 hPa 0,0 l/m 0,0 km/h (0 Bft) 0 min
08.10.2012 05:08 22,2 C 7,5 C 7,9 C 92 % 0 % 1017 hPa 0,0 l/m 0,0 km/h (0 Bft) 0 min
08.10.2012 05:11 22,2 C 7,4 C 7,6 C 92 % 0 % 1017 hPa 0,0 l/m 0,0 km/h (0 Bft) 0 min
08.10.2012 05:14 22,2 C 7,3 C 7,8 C 92 % 0 % 1017 hPa 0,0 l/m 0,0 km/h (0 Bft) 0 min
08.10.2012 05:17 22,2 C 7,3 C 7,9 C 92 % 0 % 1017 hPa 0,0 l/m 0,0 km/h (0 Bft) 0 min
08.10.2012 05:20 22,2 C 7,3 C 7,9 C 92 % 0 % 1017 hPa 0,0 l/m 0,0 km/h (0 Bft) 0 min
08.10.2012 05:23 22,2 C 7,3 C 8,1 C 92 % 0 % 1017 hPa 0,0 l/m 0,0 km/h (0 Bft) 0 min
08.10.2012 05:26 22,3 C 7,2 C 8,0 C 92 % 0 % 1017 hPa 0,0 l/m 0,0 km/h (0 Bft) 0 min
08.10.2012 05:29 22,2 C 7,2 C 7,6 C 92 % 0 % 1017 hPa 0,0 l/m 0,0 km/h (0 Bft) 0 min
08.10.2012 05:32 22,3 C 7,2 C 7,8 C 92 % 0 % 1017 hPa 0,0 l/m 0,0 km/h (0 Bft) 0 min
08.10.2012 05:35 22,3 C 7,2 C 7,7 C 92 % 0 % 1017 hPa 0,0 l/m 0,0 km/h (0 Bft) 0 min
08.10.2012 05:38 22,3 C 7,1 C 7,5 C 92 % 0 % 1017 hPa 0,0 l/m 0,0 km/h (0 Bft) 0 min
08.10.2012 05:41 22,3 C 7,1 C 7,7 C 92 % 0 % 1017 hPa 0,0 l/m 0,0 km/h (0 Bft) 0 min
08.10.2012 05:44 22,3 C 7,1 C 7,8 C 92 % 0 % 1017 hPa 0,0 l/m 0,0 km/h (0 Bft) 0 min
08.10.2012 05:47 22,3 C 7,1 C 7,5 C 92 % 0 % 1017 hPa 0,0 l/m 0,0 km/h (0 Bft) 0 min
08.10.2012 05:50 22,3 C 7,0 C 7,4 C 92 % 0 % 1017 hPa 0,0 l/m 0,0 km/h (0 Bft) 0 min
08.10.2012 05:53 22,3 C 7,0 C 7,4 C 92 % 0 % 1017 hPa 0,0 l/m 0,0 km/h (0 Bft) 0 min
08.10.2012 05:56 22,3 C 7,0 C 7,5 C 92 % 0 % 1017 hPa 0,0 l/m 0,0 km/h (0 Bft) 0 min
08.10.2012 05:59 22,3 C 6,9 C 7,3 C 92 % 0 % 1016 hPa 0,0 l/m 0,0 km/h (0 Bft) 0 min
08.10.2012 06:02 22,3 C 6,9 C 7,5 C 92 % 0 % 1016 hPa 0,0 l/m 0,0 km/h (0 Bft) 0 min
08.10.2012 06:05 22,3 C 6,8 C 7,4 C 92 % 0 % 1016 hPa 0,0 l/m 0,0 km/h (0 Bft) 0 min
08.10.2012 06:08 22,4 C 6,8 C 7,0 C 92 % 0 % 1016 hPa 0,0 l/m 0,0 km/h (0 Bft) 0 min
08.10.2012 06:11 22,3 C 6,8 C 6,8 C 92 % 0 % 1016 hPa 0,0 l/m 0,0 km/h (0 Bft) 0 min
08.10.2012 06:14 22,3 C 6,7 C 6,7 C 92 % 0 % 1016 hPa 0,0 l/m 0,0 km/h (0 Bft) 0 min
08.10.2012 06:17 22,4 C 6,6 C 7,0 C 92 % 0 % 1016 hPa 0,0 l/m 0,0 km/h (0 Bft) 0 min
08.10.2012 06:20 22,4 C 6,6 C 6,9 C 92 % 0 % 1016 hPa 0,0 l/m 0,0 km/h (0 Bft) 0 min
08.10.2012 06:23 22,3 C 6,6 C 6,8 C 92 % 0 % 1016 hPa 0,0 l/m 0,0 km/h (0 Bft) 0 min
08.10.2012 06:26 22,4 C 6,5 C 6,9 C 92 % 0 % 1016 hPa 0,0 l/m 0,0 km/h (0 Bft) 0 min
08.10.2012 06:29 22,4 C 6,4 C 6,8 C 92 % 0 % 1016 hPa 0,0 l/m 0,0 km/h (0 Bft) 0 min
08.10.2012 06:32 22,4 C 6,3 C 6,6 C 92 % 0 % 1016 hPa 0,0 l/m 0,0 km/h (0 Bft) 0 min
08.10.2012 06:35 22,5 C 6,2 C 6,9 C 93 % 0 % 1016 hPa 0,0 l/m 0,0 km/h (0 Bft) 0 min
08.10.2012 06:38 22,5 C 6,1 C 7,0 C 93 % 0 % 1016 hPa 0,0 l/m 0,0 km/h (0 Bft) 0 min
08.10.2012 06:41 22,5 C 6,1 C 6,9 C 93 % 0 % 1016 hPa 0,0 l/m 0,0 km/h (0 Bft) 0 min
08.10.2012 06:44 22,6 C 6,2 C 6,9 C 93 % 0 % 1016 hPa 0,0 l/m 0,0 km/h (0 Bft) 0 min
08.10.2012 06:47 22,6 C 6,2 C 6,7 C 93 % 0 % 1016 hPa 0,0 l/m 0,0 km/h (0 Bft) 0 min
08.10.2012 06:50 22,6 C 6,2 C 6,7 C 93 % 0 % 1016 hPa 0,0 l/m 0,7 km/h (0 Bft) 0 min
08.10.2012 06:53 22,7 C 6,1 C 6,6 C 93 % 0 % 1016 hPa 0,0 l/m 2,8 km/h (1 Bft) 0 min
08.10.2012 06:56 22,7 C 6,0 C 6,6 C 93 % 0 % 1016 hPa 0,0 l/m 2,8 km/h (1 Bft) 0 min
08.10.2012 06:59 22,7 C 5,9 C 6,2 C 93 % 0 % 1016 hPa 0,0 l/m 3,2 km/h (1 Bft) 0 min
08.10.2012 07:02 22,7 C 5,8 C 6,3 C 94 % 0 % 1016 hPa 0,0 l/m 2,9 km/h (1 Bft) 0 min
08.10.2012 07:05 22,7 C 5,8 C 6,4 C 94 % 0 % 1016 hPa 0,0 l/m 0,7 km/h (0 Bft) 0 min
08.10.2012 07:08 22,7 C 5,7 C 6,6 C 94 % 0 % 1016 hPa 0,0 l/m 3,6 km/h (1 Bft) 0 min
08.10.2012 07:11 22,7 C 5,7 C 6,4 C 94 % 1 % 1016 hPa 0,0 l/m 0,6 km/h (0 Bft) 0 min
08.10.2012 07:14 22,7 C 5,6 C 6,7 C 94 % 1 % 1016 hPa 0,0 l/m 0,6 km/h (0 Bft) 0 min
08.10.2012 07:17 22,6 C 5,6 C 6,6 C 94 % 1 % 1016 hPa 0,0 l/m 0,0 km/h (0 Bft) 0 min
08.10.2012 07:20 20,7 C 5,6 C 6,7 C 95 % 1 % 1016 hPa 0,0 l/m 3,8 km/h (1 Bft) 0 min
08.10.2012 07:23 20,3 C 5,5 C 6,7 C 94 % 1 % 1016 hPa 0,0 l/m 5,7 km/h (1 Bft) 0 min
08.10.2012 07:26 20,4 C 5,3 C 6,1 C 95 % 2 % 1016 hPa 0,0 l/m 4,9 km/h (1 Bft) 0 min
08.10.2012 07:29 20,6 C 5,2 C 6,5 C 95 % 2 % 1016 hPa 0,0 l/m 4,9 km/h (1 Bft) 0 min
08.10.2012 07:32 20,9 C 5,2 C 6,5 C 95 % 3 % 1016 hPa 0,0 l/m 3,6 km/h (1 Bft) 0 min
08.10.2012 07:35 21,1 C 5,2 C 6,7 C 95 % 3 % 1016 hPa 0,0 l/m 0,1 km/h (0 Bft) 0 min
08.10.2012 07:38 21,3 C 5,2 C 7,0 C 96 % 4 % 1016 hPa 0,0 l/m 0,0 km/h (0 Bft) 0 min
08.10.2012 07:41 21,5 C 5,2 C 7,5 C 96 % 5 % 1016 hPa 0,0 l/m 0,0 km/h (0 Bft) 0 min
08.10.2012 07:44 21,6 C 5,4 C 6,8 C 96 % 5 % 1016 hPa 0,0 l/m 0,0 km/h (0 Bft) 0 min
08.10.2012 07:47 21,8 C 5,3 C 7,2 C 96 % 5 % 1016 hPa 0,0 l/m 0,0 km/h (0 Bft) 0 min
08.10.2012 07:50 21,8 C 5,3 C 7,3 C 96 % 6 % 1016 hPa 0,0 l/m 0,0 km/h (0 Bft) 0 min
08.10.2012 07:53 21,9 C 5,3 C 7,4 C 96 % 7 % 1016 hPa 0,0 l/m 0,0 km/h (0 Bft) 0 min
08.10.2012 07:56 22,0 C 5,3 C 7,7 C 96 % 7 % 1016 hPa 0,0 l/m 0,0 km/h (0 Bft) 0 min
08.10.2012 07:59 22,0 C 5,4 C 7,5 C 96 % 7 % 1016 hPa 0,0 l/m 0,0 km/h (0 Bft) 0 min
08.10.2012 08:02 22,0 C 5,4 C 7,6 C 96 % 7 % 1016 hPa 0,0 l/m 0,0 km/h (0 Bft) 0 min
08.10.2012 08:05 22,1 C 5,3 C 8,4 C 96 % 8 % 1016 hPa 0,0 l/m 0,0 km/h (0 Bft) 0 min
08.10.2012 08:08 22,2 C 5,3 C 8,6 C 96 % 8 % 1016 hPa 0,0 l/m 0,0 km/h (0 Bft) 0 min
08.10.2012 08:11 22,2 C 5,3 C 8,0 C 96 % 9 % 1016 hPa 0,0 l/m 0,0 km/h (0 Bft) 0 min
08.10.2012 08:14 22,2 C 5,3 C 6,6 C 96 % 10 % 1016 hPa 0,0 l/m 3,3 km/h (1 Bft) 0 min
08.10.2012 08:17 22,2 C 5,1 C 6,4 C 96 % 10 % 1016 hPa 0,0 l/m 4,8 km/h (1 Bft) 0 min
08.10.2012 08:20 22,2 C 5,0 C 6,2 C 97 % 10 % 1016 hPa 0,0 l/m 4,3 km/h (1 Bft) 0 min
08.10.2012 08:23 22,2 C 4,9 C 6,9 C 97 % 11 % 1016 hPa 0,0 l/m 4,8 km/h (1 Bft) 0 min
08.10.2012 08:26 22,2 C 4,9 C 6,7 C 98 % 11 % 1016 hPa 0,0 l/m 2,4 km/h (1 Bft) 0 min
08.10.2012 08:29 22,3 C 4,9 C 6,6 C 98 % 12 % 1016 hPa 0,0 l/m 7,6 km/h (2 Bft) 0 min
08.10.2012 08:32 22,3 C 4,9 C 7,0 C 98 % 13 % 1016 hPa 0,0 l/m 3,1 km/h (1 Bft) 0 min
08.10.2012 08:35 22,2 C 5,0 C 6,8 C 98 % 14 % 1016 hPa 0,0 l/m 4,9 km/h (1 Bft) 0 min
08.10.2012 08:38 22,3 C 4,9 C 7,2 C 99 % 14 % 1016 hPa 0,0 l/m 5,2 km/h (1 Bft) 0 min
08.10.2012 08:41 22,3 C 5,0 C 7,0 C 99 % 12 % 1016 hPa 0,0 l/m 3,6 km/h (1 Bft) 0 min
08.10.2012 08:44 22,4 C 5,0 C 6,5 C 99 % 12 % 1016 hPa 0,0 l/m 4,4 km/h (1 Bft) 0 min
08.10.2012 08:47 22,3 C 4,9 C 6,5 C 99 % 14 % 1016 hPa 0,0 l/m 5,2 km/h (1 Bft) 0 min
08.10.2012 08:50 22,4 C 4,9 C 7,2 C 99 % 16 % 1016 hPa 0,0 l/m 4,1 km/h (1 Bft) 0 min
08.10.2012 08:53 22,3 C 5,0 C 6,7 C 99 % 15 % 1016 hPa 0,0 l/m 4,4 km/h (1 Bft) 0 min
08.10.2012 08:56 22,4 C 4,9 C 6,8 C 99 % 14 % 1016 hPa 0,0 l/m 3,4 km/h (1 Bft) 0 min
08.10.2012 08:59 22,4 C 4,9 C 6,8 C 99 % 17 % 1016 hPa 0,0 l/m 2,1 km/h (1 Bft) 0 min
08.10.2012 09:02 22,4 C 4,9 C 7,1 C 99 % 19 % 1016 hPa 0,0 l/m 2,8 km/h (1 Bft) 0 min
08.10.2012 09:05 22,4 C 5,0 C 7,1 C 99 % 20 % 1016 hPa 0,0 l/m 3,4 km/h (1 Bft) 0 min
08.10.2012 09:08 22,4 C 5,1 C 7,8 C 99 % 20 % 1016 hPa 0,0 l/m 2,2 km/h (1 Bft) 0 min
08.10.2012 09:11 22,4 C 5,1 C 7,8 C 99 % 21 % 1016 hPa 0,0 l/m 2,8 km/h (1 Bft) 0 min
08.10.2012 09:14 22,4 C 5,1 C 7,5 C 99 % 20 % 1016 hPa 0,0 l/m 5,0 km/h (1 Bft) 0 min
08.10.2012 09:17 22,4 C 5,2 C 7,1 C 99 % 20 % 1016 hPa 0,0 l/m 4,0 km/h (1 Bft) 0 min
08.10.2012 09:20 22,4 C 5,2 C 7,6 C 99 % 19 % 1016 hPa 0,0 l/m 3,9 km/h (1 Bft) 0 min
08.10.2012 09:23 22,4 C 5,2 C 7,3 C 99 % 20 % 1016 hPa 0,0 l/m 3,6 km/h (1 Bft) 0 min
08.10.2012 09:26 22,4 C 5,2 C 7,5 C 99 % 21 % 1016 hPa 0,0 l/m 1,0 km/h (0 Bft) 0 min
08.10.2012 09:29 22,4 C 5,3 C 7,7 C 99 % 21 % 1016 hPa 0,0 l/m 2,0 km/h (1 Bft) 0 min
08.10.2012 09:32 22,4 C 5,4 C 7,8 C 99 % 23 % 1016 hPa 0,0 l/m 3,3 km/h (1 Bft) 0 min
08.10.2012 09:35 22,4 C 5,4 C 8,1 C 99 % 23 % 1016 hPa 0,0 l/m 4,6 km/h (1 Bft) 0 min
08.10.2012 09:38 22,5 C 5,4 C 7,5 C 99 % 22 % 1016 hPa 0,0 l/m 4,7 km/h (1 Bft) 0 min
08.10.2012 09:41 22,5 C 5,4 C 7,5 C 99 % 21 % 1016 hPa 0,0 l/m 3,6 km/h (1 Bft) 0 min
08.10.2012 09:44 22,6 C 5,5 C 7,6 C 99 % 25 % 1016 hPa 0,0 l/m 3,6 km/h (1 Bft) 0 min
08.10.2012 09:47 22,6 C 5,5 C 7,6 C 99 % 25 % 1016 hPa 0,0 l/m 5,6 km/h (1 Bft) 0 min
08.10.2012 09:50 22,6 C 5,6 C 7,6 C 99 % 27 % 1016 hPa 0,0 l/m 7,9 km/h (2 Bft) 0 min
08.10.2012 09:53 22,6 C 5,5 C 7,6 C 99 % 26 % 1016 hPa 0,0 l/m 7,2 km/h (2 Bft) 0 min
08.10.2012 09:56 22,6 C 5,5 C 7,6 C 99 % 26 % 1016 hPa 0,0 l/m 7,2 km/h (2 Bft) 0 min
08.10.2012 09:59 22,6 C 5,6 C 7,7 C 99 % 26 % 1016 hPa 0,0 l/m 7,6 km/h (2 Bft) 0 min
08.10.2012 10:02 22,6 C 5,6 C 7,8 C 99 % 30 % 1016 hPa 0,0 l/m 5,9 km/h (2 Bft) 0 min
08.10.2012 10:05 22,6 C 5,6 C 9,3 C 99 % 31 % 1017 hPa 0,0 l/m 2,7 km/h (1 Bft) 0 min
08.10.2012 10:08 22,6 C 5,8 C 8,7 C 99 % 29 % 1017 hPa 0,0 l/m 0,3 km/h (0 Bft) 0 min
08.10.2012 10:11 22,5 C 5,8 C 8,4 C 99 % 29 % 1016 hPa 0,0 l/m 4,0 km/h (1 Bft) 0 min
08.10.2012 10:14 22,5 C 5,9 C 8,5 C 99 % 28 % 1017 hPa 0,0 l/m 4,6 km/h (1 Bft) 0 min
08.10.2012 10:17 22,5 C 6,0 C 8,5 C 99 % 28 % 1017 hPa 0,0 l/m 5,7 km/h (1 Bft) 0 min
08.10.2012 10:20 22,5 C 6,0 C 8,4 C 99 % 25 % 1016 hPa 0,0 l/m 3,3 km/h (1 Bft) 0 min
08.10.2012 10:23 22,5 C 6,1 C 8,6 C 99 % 24 % 1016 hPa 0,0 l/m 0,0 km/h (0 Bft) 0 min
08.10.2012 10:26 22,5 C 6,1 C 8,6 C 99 % 28 % 1016 hPa 0,0 l/m 0,0 km/h (0 Bft) 0 min
08.10.2012 10:29 22,0 C 6,2 C 9,1 C 99 % 31 % 1016 hPa 0,0 l/m 2,1 km/h (1 Bft) 0 min
08.10.2012 10:32 21,1 C 6,2 C 8,6 C 99 % 28 % 1016 hPa 0,0 l/m 6,5 km/h (2 Bft) 0 min
08.10.2012 10:35 20,2 C 6,2 C 8,3 C 99 % 28 % 1016 hPa 0,0 l/m 4,1 km/h (1 Bft) 0 min
08.10.2012 10:38 19,4 C 6,2 C 8,7 C 99 % 29 % 1016 hPa 0,0 l/m 0,5 km/h (0 Bft) 0 min
08.10.2012 10:41 18,9 C 6,3 C 9,4 C 99 % 29 % 1016 hPa 0,0 l/m 0,5 km/h (0 Bft) 0 min
08.10.2012 10:44 18,7 C 6,4 C 8,6 C 99 % 35 % 1016 hPa 0,0 l/m 4,3 km/h (1 Bft) 0 min
08.10.2012 10:47 19,0 C 6,5 C 9,1 C 99 % 32 % 1016 hPa 0,0 l/m 0,4 km/h (0 Bft) 0 min
08.10.2012 10:50 19,5 C 6,6 C 9,2 C 99 % 32 % 1016 hPa 0,0 l/m 0,0 km/h (0 Bft) 0 min
08.10.2012 10:53 19,5 C 6,7 C 10,1 C 99 % 33 % 1016 hPa 0,0 l/m 0,0 km/h (0 Bft) 0 min
08.10.2012 10:56 20,6 C 6,7 C 9,4 C 99 % 30 % 1016 hPa 0,0 l/m 3,3 km/h (1 Bft) 0 min
08.10.2012 10:59 20,8 C 6,8 C 9,3 C 99 % 32 % 1016 hPa 0,0 l/m 3,3 km/h (1 Bft) 0 min
08.10.2012 11:02 21,0 C 6,8 C 8,4 C 99 % 30 % 1016 hPa 0,0 l/m 4,7 km/h (1 Bft) 0 min
08.10.2012 11:05 21,0 C 6,8 C 10,1 C 99 % 30 % 1016 hPa 0,0 l/m 3,4 km/h (1 Bft) 0 min
08.10.2012 11:08 21,3 C 6,8 C 9,7 C 99 % 30 % 1016 hPa 0,0 l/m 0,0 km/h (0 Bft) 0 min
08.10.2012 11:11 21,4 C 6,9 C 10,4 C 99 % 33 % 1016 hPa 0,0 l/m 0,1 km/h (0 Bft) 0 min
08.10.2012 11:14 21,4 C 6,9 C 10,8 C 99 % 32 % 1016 hPa 0,0 l/m 0,0 km/h (0 Bft) 0 min
08.10.2012 11:17 21,6 C 7,1 C 11,1 C 99 % 31 % 1016 hPa 0,0 l/m 0,1 km/h (0 Bft) 0 min
08.10.2012 11:20 21,6 C 7,3 C 15,8 C 99 % 31 % 1016 hPa 0,0 l/m 2,4 km/h (1 Bft) 0 min
08.10.2012 11:23 21,7 C 7,4 C 14,9 C 99 % 28 % 1016 hPa 0,0 l/m 2,4 km/h (1 Bft) 0 min
08.10.2012 11:26 21,7 C 7,5 C 13,1 C 99 % 28 % 1016 hPa 0,0 l/m 0,4 km/h (0 Bft) 0 min
08.10.2012 11:29 21,8 C 7,6 C 13,4 C 99 % 53 % 1016 hPa 0,0 l/m 2,5 km/h (1 Bft) 0 min
08.10.2012 11:32 21,8 C 7,8 C 15,2 C 99 % 47 % 1016 hPa 0,0 l/m 0,7 km/h (0 Bft) 0 min
08.10.2012 11:35 21,8 C 8,0 C 18,6 C 98 % 47 % 1016 hPa 0,0 l/m 4,6 km/h (1 Bft) 0 min
08.10.2012 11:38 21,8 C 8,1 C 21,0 C 98 % 47 % 1016 hPa 0,0 l/m 2,4 km/h (1 Bft) 0 min
08.10.2012 11:41 21,8 C 8,2 C 22,5 C 98 % 57 % 1016 hPa 0,0 l/m 0,9 km/h (0 Bft) 3 min
08.10.2012 11:44 21,9 C 8,4 C 23,7 C 97 % 58 % 1016 hPa 0,0 l/m 0,6 km/h (0 Bft) 3 min
08.10.2012 11:47 22,0 C 8,5 C 22,4 C 97 % 57 % 1016 hPa 0,0 l/m 0,6 km/h (0 Bft) 3 min
08.10.2012 11:50 22,0 C 8,7 C 22,4 C 96 % 60 % 1016 hPa 0,0 l/m 4,3 km/h (1 Bft) 3 min
08.10.2012 11:53 22,0 C 8,8 C 23,8 C 96 % 64 % 1016 hPa 0,0 l/m 1,0 km/h (0 Bft) 3 min
08.10.2012 11:56 22,0 C 9,0 C 22,4 C 96 % 64 % 1016 hPa 0,0 l/m 6,3 km/h (2 Bft) 3 min
08.10.2012 11:59 22,1 C 9,2 C 21,0 C 95 % 64 % 1016 hPa 0,0 l/m 1,5 km/h (1 Bft) 3 min
08.10.2012 12:02 22,1 C 9,2 C 25,5 C 94 % 64 % 1016 hPa 0,0 l/m 0,7 km/h (0 Bft) 3 min
08.10.2012 12:05 22,1 C 9,4 C 20,7 C 94 % 75 % 1016 hPa 0,0 l/m 0,9 km/h (0 Bft) 3 min
08.10.2012 12:08 22,2 C 9,5 C 17,7 C 93 % 76 % 1016 hPa 0,0 l/m 2,5 km/h (1 Bft) 3 min
08.10.2012 12:11 22,2 C 9,6 C 17,2 C 92 % 76 % 1016 hPa 0,0 l/m 2,5 km/h (1 Bft) 3 min
08.10.2012 12:14 22,2 C 9,8 C 15,1 C 92 % 77 % 1016 hPa 0,0 l/m 3,3 km/h (1 Bft) 3 min
08.10.2012 12:17 22,2 C 9,9 C 15,8 C 91 % 79 % 1016 hPa 0,0 l/m 0,0 km/h (0 Bft) 3 min
08.10.2012 12:20 22,2 C 10,0 C 17,4 C 91 % 79 % 1016 hPa 0,0 l/m 2,4 km/h (1 Bft) 3 min
08.10.2012 12:23 22,2 C 10,1 C 15,0 C 90 % 86 % 1016 hPa 0,0 l/m 3,4 km/h (1 Bft) 3 min
08.10.2012 12:26 22,2 C 10,3 C 13,4 C 86 % 88 % 1016 hPa 0,0 l/m 1,8 km/h (1 Bft) 3 min
08.10.2012 12:29 22,2 C 10,4 C 14,2 C 85 % 91 % 1016 hPa 0,0 l/m 6,6 km/h (2 Bft) 3 min
08.10.2012 12:32 22,2 C 10,5 C 14,2 C 84 % 91 % 1015 hPa 0,0 l/m 4,1 km/h (1 Bft) 3 min
08.10.2012 12:35 22,2 C 10,6 C 13,1 C 82 % 73 % 1015 hPa 0,0 l/m 5,0 km/h (1 Bft) 3 min
08.10.2012 12:38 22,2 C 10,6 C 12,8 C 82 % 73 % 1015 hPa 0,0 l/m 3,9 km/h (1 Bft) 3 min
08.10.2012 12:41 22,2 C 10,6 C 12,2 C 80 % 73 % 1015 hPa 0,0 l/m 3,7 km/h (1 Bft) 3 min
08.10.2012 12:44 22,2 C 10,7 C 12,3 C 80 % 100 % 1015 hPa 0,0 l/m 5,4 km/h (1 Bft) 3 min
08.10.2012 12:47 22,2 C 10,8 C 12,3 C 80 % 100 % 1015 hPa 0,0 l/m 3,7 km/h (1 Bft) 3 min
08.10.2012 12:50 22,2 C 10,8 C 12,4 C 78 % 62 % 1015 hPa 0,0 l/m 3,2 km/h (1 Bft) 3 min
08.10.2012 12:53 22,2 C 10,8 C 12,2 C 78 % 62 % 1015 hPa 0,0 l/m 1,9 km/h (1 Bft) 3 min
08.10.2012 12:56 22,2 C 10,7 C 12,2 C 77 % 90 % 1015 hPa 0,0 l/m 0,7 km/h (0 Bft) 3 min
08.10.2012 12:59 22,2 C 10,7 C 12,2 C 78 % 90 % 1015 hPa 0,0 l/m 0,0 km/h (0 Bft) 3 min
08.10.2012 13:02 22,2 C 10,7 C 12,2 C 77 % 50 % 1015 hPa 0,0 l/m 1,8 km/h (1 Bft) 0 min
08.10.2012 13:05 22,2 C 10,8 C 12,3 C 75 % 50 % 1015 hPa 0,0 l/m 4,2 km/h (1 Bft) 0 min
08.10.2012 13:08 22,2 C 11,0 C 12,4 C 74 % 50 % 1015 hPa 0,0 l/m 6,8 km/h (2 Bft) 0 min
08.10.2012 13:11 22,3 C 11,0 C 12,3 C 72 % 50 % 1015 hPa 0,0 l/m 3,6 km/h (1 Bft) 0 min
08.10.2012 13:14 22,3 C 11,1 C 12,1 C 71 % 50 % 1015 hPa 0,0 l/m 1,0 km/h (0 Bft) 0 min
08.10.2012 13:17 22,2 C 11,2 C 12,0 C 69 % 50 % 1015 hPa 0,0 l/m 7,4 km/h (2 Bft) 0 min
08.10.2012 13:20 22,2 C 11,3 C 12,1 C 67 % 50 % 1015 hPa 0,0 l/m 7,0 km/h (2 Bft) 0 min
08.10.2012 13:23 22,3 C 11,4 C 12,0 C 65 % 50 % 1015 hPa 0,0 l/m 2,7 km/h (1 Bft) 0 min
08.10.2012 13:26 22,3 C 11,4 C 12,0 C 66 % 50 % 1015 hPa 0,0 l/m 2,1 km/h (1 Bft) 0 min
08.10.2012 13:29 22,4 C 11,5 C 11,8 C 71 % 50 % 1015 hPa 0,0 l/m 4,8 km/h (1 Bft) 0 min
08.10.2012 13:32 22,4 C 11,5 C 11,9 C 70 % 50 % 1014 hPa 0,0 l/m 6,7 km/h (2 Bft) 0 min
08.10.2012 13:35 22,4 C 11,4 C 12,1 C 69 % 50 % 1014 hPa 0,0 l/m 9,9 km/h (2 Bft) 0 min
08.10.2012 13:38 22,4 C 11,5 C 11,9 C 68 % 50 % 1014 hPa 0,0 l/m 7,6 km/h (2 Bft) 0 min
08.10.2012 13:41 22,4 C 11,5 C 12,0 C 68 % 50 % 1014 hPa 0,0 l/m 9,3 km/h (2 Bft) 0 min
08.10.2012 13:44 22,4 C 11,5 C 11,8 C 66 % 50 % 1014 hPa 0,0 l/m 7,9 km/h (2 Bft) 0 min
08.10.2012 13:47 22,5 C 11,5 C 11,8 C 66 % 50 % 1014 hPa 0,0 l/m 5,9 km/h (2 Bft) 0 min
08.10.2012 13:50 22,4 C 11,6 C 12,0 C 66 % 50 % 1014 hPa 0,0 l/m 2,5 km/h (1 Bft) 0 min
08.10.2012 13:53 22,4 C 11,7 C 11,7 C 67 % 50 % 1014 hPa 0,0 l/m 2,5 km/h (1 Bft) 0 min
08.10.2012 13:56 22,4 C 11,8 C 12,0 C 66 % 50 % 1014 hPa 0,0 l/m 6,3 km/h (2 Bft) 0 min
08.10.2012 13:59 22,4 C 11,8 C 12,1 C 66 % 50 % 1014 hPa 0,0 l/m 8,3 km/h (2 Bft) 0 min
08.10.2012 14:02 22,4 C 11,9 C 11,8 C 65 % 50 % 1014 hPa 0,0 l/m 3,9 km/h (1 Bft) 0 min
08.10.2012 14:05 22,4 C 11,9 C 11,6 C 64 % 50 % 1014 hPa 0,0 l/m 1,9 km/h (1 Bft) 0 min
08.10.2012 14:08 22,4 C 12,0 C 11,7 C 65 % 50 % 1014 hPa 0,0 l/m 8,3 km/h (2 Bft) 0 min
08.10.2012 14:11 22,4 C 11,9 C 11,6 C 65 % 50 % 1014 hPa 0,0 l/m 11,9 km/h (2 Bft) 0 min
08.10.2012 14:14 22,4 C 11,9 C 11,9 C 65 % 50 % 1014 hPa 0,0 l/m 10,1 km/h (2 Bft) 0 min
08.10.2012 14:17 22,4 C 12,0 C 11,8 C 64 % 50 % 1014 hPa 0,0 l/m 9,5 km/h (2 Bft) 0 min
08.10.2012 14:20 22,3 C 12,0 C 12,3 C 65 % 50 % 1014 hPa 0,0 l/m 1,2 km/h (1 Bft) 0 min
08.10.2012 14:23 22,3 C 12,1 C 11,8 C 65 % 50 % 1014 hPa 0,0 l/m 10,1 km/h (2 Bft) 0 min
08.10.2012 14:26 22,3 C 12,1 C 11,8 C 64 % 50 % 1014 hPa 0,0 l/m 10,8 km/h (2 Bft) 0 min
08.10.2012 14:29 22,4 C 12,1 C 11,8 C 64 % 50 % 1013 hPa 0,0 l/m 6,4 km/h (2 Bft) 0 min
08.10.2012 14:32 22,3 C 12,2 C 11,6 C 63 % 50 % 1013 hPa 0,0 l/m 5,2 km/h (1 Bft) 0 min
08.10.2012 14:35 22,4 C 12,2 C 12,1 C 63 % 50 % 1013 hPa 0,0 l/m 0,9 km/h (0 Bft) 0 min
08.10.2012 14:38 22,4 C 12,3 C 12,0 C 63 % 50 % 1013 hPa 0,0 l/m 0,9 km/h (0 Bft) 0 min
08.10.2012 14:41 22,4 C 12,3 C 12,3 C 63 % 50 % 1013 hPa 0,0 l/m 4,0 km/h (1 Bft) 0 min
08.10.2012 14:44 22,3 C 12,4 C 12,9 C 64 % 50 % 1013 hPa 0,0 l/m 0,5 km/h (0 Bft) 0 min
08.10.2012 14:47 22,4 C 12,4 C 12,1 C 64 % 50 % 1013 hPa 0,0 l/m 4,3 km/h (1 Bft) 0 min
08.10.2012 14:50 22,4 C 12,5 C 12,2 C 63 % 50 % 1013 hPa 0,0 l/m 2,2 km/h (1 Bft) 0 min
08.10.2012 14:53 22,4 C 12,6 C 12,0 C 64 % 50 % 1013 hPa 0,0 l/m 3,1 km/h (1 Bft) 0 min
08.10.2012 14:56 22,4 C 12,6 C 11,8 C 64 % 50 % 1013 hPa 0,0 l/m 6,9 km/h (2 Bft) 0 min
08.10.2012 14:59 22,4 C 12,6 C 13,1 C 63 % 50 % 1013 hPa 0,0 l/m 1,9 km/h (1 Bft) 0 min
08.10.2012 15:02 22,4 C 12,6 C 13,1 C 63 % 50 % 1013 hPa 0,0 l/m 4,9 km/h (1 Bft) 0 min
08.10.2012 15:05 22,4 C 12,6 C 12,0 C 63 % 50 % 1013 hPa 0,0 l/m 4,1 km/h (1 Bft) 0 min
08.10.2012 15:08 22,4 C 12,6 C 13,4 C 63 % 50 % 1013 hPa 0,0 l/m 1,2 km/h (1 Bft) 0 min
08.10.2012 15:11 22,4 C 12,6 C 15,8 C 63 % 50 % 1013 hPa 0,0 l/m 0,8 km/h (0 Bft) 0 min
08.10.2012 15:14 22,4 C 12,5 C 14,0 C 64 % 50 % 1013 hPa 0,0 l/m 15,5 km/h (3 Bft) 0 min
08.10.2012 15:17 22,4 C 12,5 C 12,9 C 62 % 50 % 1013 hPa 0,0 l/m 10,2 km/h (2 Bft) 0 min
08.10.2012 15:20 22,5 C 12,4 C 13,0 C 61 % 50 % 1013 hPa 0,0 l/m 6,0 km/h (2 Bft) 0 min
08.10.2012 15:23 22,4 C 12,4 C 13,0 C 61 % 50 % 1013 hPa 0,0 l/m 2,5 km/h (1 Bft) 0 min
08.10.2012 15:26 22,4 C 12,4 C 13,8 C 61 % 50 % 1013 hPa 0,0 l/m 0,1 km/h (0 Bft) 0 min
08.10.2012 15:29 22,4 C 12,4 C 15,5 C 61 % 50 % 1013 hPa 0,0 l/m 1,8 km/h (1 Bft) 0 min
08.10.2012 15:32 22,5 C 12,4 C 15,7 C 62 % 50 % 1013 hPa 0,0 l/m 9,4 km/h (2 Bft) 0 min
08.10.2012 15:35 22,5 C 12,4 C 15,0 C 60 % 50 % 1013 hPa 0,0 l/m 7,2 km/h (2 Bft) 0 min
08.10.2012 15:38 22,4 C 12,3 C 14,5 C 59 % 50 % 1013 hPa 0,0 l/m 7,4 km/h (2 Bft) 0 min
08.10.2012 15:41 22,4 C 12,3 C 14,5 C 59 % 50 % 1013 hPa 0,0 l/m 8,9 km/h (2 Bft) 0 min
08.10.2012 15:44 22,4 C 12,3 C 14,3 C 60 % 50 % 1013 hPa 0,0 l/m 7,7 km/h (2 Bft) 0 min
08.10.2012 15:47 22,4 C 12,3 C 15,4 C 60 % 50 % 1013 hPa 0,0 l/m 7,7 km/h (2 Bft) 3 min
08.10.2012 15:50 22,4 C 12,3 C 15,4 C 62 % 50 % 1013 hPa 0,0 l/m 3,4 km/h (1 Bft) 3 min
08.10.2012 15:53 22,4 C 12,3 C 16,5 C 62 % 50 % 1013 hPa 0,0 l/m 5,3 km/h (1 Bft) 3 min
08.10.2012 15:56 22,4 C 12,3 C 16,1 C 61 % 50 % 1013 hPa 0,0 l/m 5,4 km/h (1 Bft) 3 min
08.10.2012 15:59 22,4 C 12,2 C 14,2 C 60 % 50 % 1013 hPa 0,0 l/m 5,4 km/h (1 Bft) 3 min
08.10.2012 16:02 22,4 C 12,2 C 14,9 C 60 % 50 % 1013 hPa 0,0 l/m 0,2 km/h (0 Bft) 3 min
08.10.2012 16:05 22,4 C 12,2 C 15,2 C 60 % 50 % 1013 hPa 0,0 l/m 0,3 km/h (0 Bft) 3 min
08.10.2012 16:08 22,4 C 12,2 C 14,5 C 60 % 50 % 1013 hPa 0,0 l/m 6,0 km/h (2 Bft) 3 min
08.10.2012 16:11 22,4 C 12,1 C 15,2 C 60 % 50 % 1013 hPa 0,0 l/m 5,2 km/h (1 Bft) 3 min
08.10.2012 16:14 22,4 C 12,1 C 14,9 C 61 % 50 % 1012 hPa 0,0 l/m 1,0 km/h (0 Bft) 3 min
08.10.2012 16:17 22,4 C 12,1 C 15,0 C 61 % 50 % 1013 hPa 0,0 l/m 3,1 km/h (1 Bft) 3 min
08.10.2012 16:20 22,4 C 12,1 C 14,6 C 62 % 50 % 1012 hPa 0,0 l/m 3,0 km/h (1 Bft) 3 min
08.10.2012 16:23 22,4 C 12,0 C 14,2 C 62 % 98 % 1012 hPa 0,0 l/m 2,4 km/h (1 Bft) 3 min
08.10.2012 16:26 22,4 C 12,0 C 14,6 C 62 % 98 % 1012 hPa 0,0 l/m 5,0 km/h (1 Bft) 3 min
08.10.2012 16:29 22,4 C 12,0 C 14,4 C 61 % 98 % 1012 hPa 0,0 l/m 4,0 km/h (1 Bft) 3 min
08.10.2012 16:32 22,4 C 12,0 C 14,5 C 61 % 98 % 1012 hPa 0,0 l/m 1,9 km/h (1 Bft) 3 min
08.10.2012 16:35 22,4 C 11,9 C 14,2 C 61 % 93 % 1012 hPa 0,0 l/m 4,6 km/h (1 Bft) 3 min
08.10.2012 16:38 22,4 C 11,9 C 14,7 C 61 % 88 % 1012 hPa 0,0 l/m 4,6 km/h (1 Bft) 3 min
08.10.2012 16:41 22,4 C 11,9 C 14,7 C 61 % 88 % 1012 hPa 0,0 l/m 2,2 km/h (1 Bft) 3 min
08.10.2012 16:44 22,3 C 11,9 C 14,2 C 60 % 71 % 1012 hPa 0,0 l/m 5,1 km/h (1 Bft) 3 min
08.10.2012 16:47 22,3 C 11,8 C 14,4 C 60 % 69 % 1012 hPa 0,0 l/m 0,7 km/h (0 Bft) 3 min
08.10.2012 16:50 22,4 C 11,8 C 14,4 C 61 % 69 % 1012 hPa 0,0 l/m 3,0 km/h (1 Bft) 3 min
08.10.2012 16:53 22,4 C 11,8 C 14,1 C 61 % 69 % 1012 hPa 0,0 l/m 0,2 km/h (0 Bft) 3 min
08.10.2012 16:56 22,4 C 11,8 C 13,8 C 61 % 43 % 1012 hPa 0,0 l/m 0,2 km/h (0 Bft) 3 min
08.10.2012 16:59 22,4 C 11,7 C 13,5 C 63 % 43 % 1012 hPa 0,0 l/m 1,3 km/h (1 Bft) 3 min
08.10.2012 17:02 22,4 C 11,6 C 14,0 C 63 % 53 % 1012 hPa 0,0 l/m 2,7 km/h (1 Bft) 3 min
08.10.2012 17:05 22,4 C 11,6 C 14,2 C 63 % 50 % 1012 hPa 0,0 l/m 0,8 km/h (0 Bft) 3 min
08.10.2012 17:08 22,5 C 11,6 C 14,0 C 63 % 47 % 1012 hPa 0,0 l/m 1,9 km/h (1 Bft) 3 min
08.10.2012 17:11 22,5 C 11,6 C 13,9 C 63 % 44 % 1012 hPa 0,0 l/m 1,1 km/h (1 Bft) 3 min
08.10.2012 17:14 22,5 C 11,6 C 13,8 C 63 % 38 % 1012 hPa 0,0 l/m 1,1 km/h (1 Bft) 3 min
08.10.2012 17:17 22,6 C 11,5 C 13,6 C 63 % 38 % 1012 hPa 0,0 l/m 0,0 km/h (0 Bft) 3 min
08.10.2012 17:20 22,6 C 11,5 C 13,6 C 63 % 34 % 1012 hPa 0,0 l/m 4,2 km/h (1 Bft) 3 min
08.10.2012 17:23 22,7 C 11,4 C 13,6 C 63 % 35 % 1012 hPa 0,0 l/m 0,1 km/h (0 Bft) 3 min
08.10.2012 17:26 22,7 C 11,4 C 13,4 C 63 % 35 % 1012 hPa 0,0 l/m 0,1 km/h (0 Bft) 3 min
08.10.2012 17:29 22,7 C 11,4 C 13,6 C 63 % 32 % 1012 hPa 0,0 l/m 3,6 km/h (1 Bft) 3 min
08.10.2012 17:32 22,8 C 11,4 C 13,5 C 63 % 31 % 1012 hPa 0,0 l/m 1,5 km/h (1 Bft) 3 min
08.10.2012 17:35 22,8 C 11,3 C 13,5 C 63 % 29 % 1012 hPa 0,0 l/m 0,0 km/h (0 Bft) 3 min
08.10.2012 17:38 22,8 C 11,3 C 13,2 C 63 % 29 % 1011 hPa 0,0 l/m 0,0 km/h (0 Bft) 3 min
08.10.2012 17:41 22,8 C 11,3 C 12,9 C 63 % 29 % 1011 hPa 0,0 l/m 0,0 km/h (0 Bft) 3 min
08.10.2012 17:44 22,8 C 11,2 C 12,6 C 63 % 29 % 1011 hPa 0,0 l/m 0,0 km/h (0 Bft) 3 min
08.10.2012 17:47 22,8 C 11,1 C 12,7 C 64 % 25 % 1011 hPa 0,0 l/m 0,2 km/h (0 Bft) 3 min
08.10.2012 17:50 22,8 C 11,1 C 12,9 C 64 % 24 % 1011 hPa 0,0 l/m 0,0 km/h (0 Bft) 3 min
08.10.2012 17:53 22,8 C 11,1 C 12,9 C 65 % 24 % 1011 hPa 0,0 l/m 0,0 km/h (0 Bft) 3 min
08.10.2012 17:56 22,8 C 11,1 C 12,3 C 65 % 18 % 1011 hPa 0,0 l/m 0,0 km/h (0 Bft) 3 min
08.10.2012 17:59 22,8 C 11,0 C 12,1 C 65 % 20 % 1011 hPa 0,0 l/m 0,0 km/h (0 Bft) 3 min
08.10.2012 18:02 22,8 C 11,0 C 12,0 C 65 % 14 % 1011 hPa 0,0 l/m 0,0 km/h (0 Bft) 3 min
08.10.2012 18:05 22,8 C 10,9 C 11,6 C 65 % 14 % 1011 hPa 0,0 l/m 0,0 km/h (0 Bft) 3 min
08.10.2012 18:08 22,8 C 10,9 C 11,3 C 66 % 9 % 1011 hPa 0,0 l/m 0,0 km/h (0 Bft) 3 min
08.10.2012 18:11 22,8 C 10,8 C 11,1 C 66 % 9 % 1011 hPa 0,0 l/m 0,0 km/h (0 Bft) 3 min
08.10.2012 18:14 22,8 C 10,8 C 10,9 C 66 % 7 % 1011 hPa 0,0 l/m 0,0 km/h (0 Bft) 3 min
08.10.2012 18:17 22,8 C 10,7 C 10,7 C 66 % 6 % 1011 hPa 0,0 l/m 0,0 km/h (0 Bft) 3 min
08.10.2012 18:20 22,8 C 10,6 C 10,4 C 66 % 5 % 1011 hPa 0,0 l/m 0,0 km/h (0 Bft) 3 min
08.10.2012 18:23 22,8 C 10,6 C 10,3 C 66 % 4 % 1011 hPa 0,0 l/m 0,0 km/h (0 Bft) 0 min
08.10.2012 18:26 22,8 C 10,5 C 10,3 C 66 % 3 % 1011 hPa 0,0 l/m 0,0 km/h (0 Bft) 0 min
08.10.2012 18:29 22,8 C 10,5 C 10,3 C 66 % 2 % 1011 hPa 0,0 l/m 0,0 km/h (0 Bft) 0 min
08.10.2012 18:32 22,8 C 10,4 C 10,1 C 66 % 1 % 1011 hPa 0,0 l/m 0,0 km/h (0 Bft) 0 min
08.10.2012 18:35 22,8 C 10,4 C 10,1 C 67 % 1 % 1011 hPa 0,0 l/m 0,0 km/h (0 Bft) 0 min
08.10.2012 18:38 22,8 C 10,3 C 9,9 C 67 % 1 % 1011 hPa 0,0 l/m 0,0 km/h (0 Bft) 0 min
08.10.2012 18:41 22,8 C 10,3 C 9,9 C 67 % 1 % 1011 hPa 0,0 l/m 0,0 km/h (0 Bft) 0 min
08.10.2012 18:44 22,8 C 10,3 C 9,6 C 67 % 0 % 1011 hPa 0,0 l/m 0,0 km/h (0 Bft) 0 min
08.10.2012 18:47 22,8 C 10,2 C 9,5 C 67 % 0 % 1011 hPa 0,0 l/m 0,0 km/h (0 Bft) 0 min
08.10.2012 18:50 22,8 C 10,2 C 9,6 C 67 % 0 % 1011 hPa 0,0 l/m 0,0 km/h (0 Bft) 0 min
08.10.2012 18:53 22,8 C 10,1 C 9,5 C 67 % 0 % 1011 hPa 0,0 l/m 0,0 km/h (0 Bft) 0 min
08.10.2012 18:56 22,8 C 10,1 C 9,4 C 67 % 0 % 1011 hPa 0,0 l/m 0,0 km/h (0 Bft) 0 min
08.10.2012 18:59 22,8 C 10,1 C 9,5 C 67 % 0 % 1011 hPa 0,0 l/m 0,0 km/h (0 Bft) 0 min
08.10.2012 19:02 22,8 C 10,0 C 9,3 C 67 % 0 % 1011 hPa 0,0 l/m 0,0 km/h (0 Bft) 0 min
08.10.2012 19:05 22,8 C 10,0 C 9,3 C 67 % 0 % 1011 hPa 0,0 l/m 0,0 km/h (0 Bft) 0 min
08.10.2012 19:08 22,8 C 9,9 C 9,7 C 67 % 0 % 1011 hPa 0,0 l/m 0,0 km/h (0 Bft) 0 min
08.10.2012 19:11 22,8 C 9,8 C 9,6 C 68 % 0 % 1011 hPa 0,0 l/m 0,0 km/h (0 Bft) 0 min
08.10.2012 19:14 22,8 C 9,8 C 9,4 C 68 % 0 % 1011 hPa 0,0 l/m 0,0 km/h (0 Bft) 0 min
08.10.2012 19:17 22,8 C 9,7 C 9,4 C 68 % 0 % 1011 hPa 0,0 l/m 0,0 km/h (0 Bft) 0 min
08.10.2012 19:20 22,8 C 9,7 C 9,5 C 69 % 0 % 1011 hPa 0,0 l/m 0,0 km/h (0 Bft) 0 min
08.10.2012 19:23 22,8 C 9,7 C 9,2 C 69 % 0 % 1011 hPa 0,0 l/m 0,0 km/h (0 Bft) 0 min
08.10.2012 19:26 22,8 C 9,6 C 9,2 C 69 % 0 % 1011 hPa 0,0 l/m 0,0 km/h (0 Bft) 0 min
08.10.2012 19:29 22,8 C 9,6 C 9,2 C 69 % 0 % 1011 hPa 0,0 l/m 0,0 km/h (0 Bft) 0 min
08.10.2012 19:32 22,8 C 9,6 C 9,2 C 69 % 0 % 1011 hPa 0,0 l/m 0,0 km/h (0 Bft) 0 min
08.10.2012 19:35 22,8 C 9,5 C 9,2 C 70 % 0 % 1011 hPa 0,0 l/m 0,0 km/h (0 Bft) 0 min
08.10.2012 19:38 22,8 C 9,4 C 9,1 C 70 % 0 % 1011 hPa 0,0 l/m 0,0 km/h (0 Bft) 0 min
08.10.2012 19:41 22,7 C 9,4 C 8,9 C 70 % 0 % 1011 hPa 0,0 l/m 0,0 km/h (0 Bft) 0 min
08.10.2012 19:44 22,7 C 9,3 C 8,9 C 70 % 0 % 1011 hPa 0,0 l/m 0,0 km/h (0 Bft) 0 min
08.10.2012 19:47 22,7 C 9,3 C 8,8 C 70 % 0 % 1011 hPa 0,0 l/m 0,0 km/h (0 Bft) 0 min
08.10.2012 19:50 22,7 C 9,2 C 8,5 C 70 % 0 % 1011 hPa 0,0 l/m 0,0 km/h (0 Bft) 0 min
08.10.2012 19:53 22,7 C 9,2 C 8,6 C 70 % 0 % 1011 hPa 0,0 l/m 0,0 km/h (0 Bft) 0 min
08.10.2012 19:56 22,8 C 9,1 C 8,6 C 70 % 0 % 1011 hPa 0,0 l/m 0,0 km/h (0 Bft) 0 min
08.10.2012 19:59 22,1 C 9,1 C 8,5 C 70 % 0 % 1011 hPa 0,0 l/m 0,0 km/h (0 Bft) 0 min
08.10.2012 20:02 20,0 C 9,1 C 8,3 C 70 % 0 % 1011 hPa 0,0 l/m 0,0 km/h (0 Bft) 0 min
08.10.2012 20:05 19,4 C 8,9 C 8,3 C 71 % 0 % 1011 hPa 0,0 l/m 0,0 km/h (0 Bft) 0 min
08.10.2012 20:08 19,5 C 8,8 C 8,2 C 71 % 0 % 1011 hPa 0,0 l/m 0,0 km/h (0 Bft) 0 min
08.10.2012 20:11 19,9 C 8,8 C 8,2 C 71 % 0 % 1011 hPa 0,0 l/m 0,0 km/h (0 Bft) 0 min
08.10.2012 20:14 20,3 C 8,8 C 8,2 C 71 % 0 % 1011 hPa 0,0 l/m 0,0 km/h (0 Bft) 0 min
08.10.2012 20:17 20,7 C 8,8 C 8,1 C 71 % 0 % 1011 hPa 0,0 l/m 0,0 km/h (0 Bft) 0 min
08.10.2012 20:20 21,1 C 8,7 C 8,2 C 72 % 0 % 1011 hPa 0,0 l/m 0,0 km/h (0 Bft) 0 min
08.10.2012 20:23 21,3 C 8,6 C 8,4 C 72 % 0 % 1011 hPa 0,0 l/m 0,0 km/h (0 Bft) 0 min
08.10.2012 20:26 21,6 C 8,6 C 8,3 C 72 % 0 % 1011 hPa 0,0 l/m 0,0 km/h (0 Bft) 0 min
08.10.2012 20:29 21,7 C 8,6 C 8,3 C 72 % 0 % 1011 hPa 0,0 l/m 0,0 km/h (0 Bft) 0 min
08.10.2012 20:32 21,8 C 8,5 C 8,3 C 72 % 0 % 1010 hPa 0,0 l/m 0,0 km/h (0 Bft) 0 min
08.10.2012 20:35 21,9 C 8,5 C 8,3 C 72 % 0 % 1010 hPa 0,0 l/m 0,0 km/h (0 Bft) 0 min
08.10.2012 20:38 21,9 C 8,5 C 8,3 C 72 % 0 % 1010 hPa 0,0 l/m 0,0 km/h (0 Bft) 0 min
08.10.2012 20:41 22,0 C 8,4 C 8,5 C 73 % 0 % 1011 hPa 0,0 l/m 0,0 km/h (0 Bft) 0 min
08.10.2012 20:44 22,1 C 8,4 C 8,3 C 73 % 0 % 1010 hPa 0,0 l/m 0,0 km/h (0 Bft) 0 min
08.10.2012 20:47 22,2 C 8,4 C 8,3 C 73 % 0 % 1010 hPa 0,0 l/m 0,0 km/h (0 Bft) 0 min
08.10.2012 20:50 22,2 C 8,4 C 8,2 C 73 % 0 % 1010 hPa 0,0 l/m 0,0 km/h (0 Bft) 0 min
08.10.2012 20:53 22,2 C 8,3 C 8,2 C 73 % 0 % 1010 hPa 0,0 l/m 0,0 km/h (0 Bft) 0 min
08.10.2012 20:56 22,2 C 8,3 C 8,4 C 73 % 0 % 1010 hPa 0,0 l/m 0,0 km/h (0 Bft) 0 min
08.10.2012 20:59 22,2 C 8,3 C 8,4 C 73 % 0 % 1010 hPa 0,0 l/m 0,0 km/h (0 Bft) 0 min
08.10.2012 21:02 22,2 C 8,3 C 8,4 C 73 % 0 % 1010 hPa 0,0 l/m 0,0 km/h (0 Bft) 0 min
08.10.2012 21:05 22,2 C 8,2 C 8,4 C 74 % 0 % 1010 hPa 0,0 l/m 0,0 km/h (0 Bft) 0 min
08.10.2012 21:08 22,3 C 8,2 C 7,6 C 74 % 0 % 1010 hPa 0,0 l/m 0,0 km/h (0 Bft) 0 min
08.10.2012 21:11 22,3 C 8,1 C 7,5 C 74 % 0 % 1010 hPa 0,0 l/m 0,0 km/h (0 Bft) 0 min
08.10.2012 21:14 22,3 C 8,0 C 7,4 C 74 % 0 % 1010 hPa 0,0 l/m 0,0 km/h (0 Bft) 0 min
08.10.2012 21:17 22,3 C 7,8 C 7,4 C 75 % 0 % 1010 hPa 0,0 l/m 0,0 km/h (0 Bft) 0 min
08.10.2012 21:20 22,3 C 7,8 C 7,7 C 75 % 0 % 1010 hPa 0,0 l/m 0,0 km/h (0 Bft) 0 min
08.10.2012 21:23 22,3 C 7,8 C 7,7 C 75 % 0 % 1010 hPa 0,0 l/m 0,0 km/h (0 Bft) 0 min
08.10.2012 21:26 22,3 C 7,7 C 7,8 C 75 % 0 % 1010 hPa 0,0 l/m 0,0 km/h (0 Bft) 0 min
08.10.2012 21:29 22,3 C 7,7 C 7,6 C 75 % 0 % 1010 hPa 0,0 l/m 0,0 km/h (0 Bft) 0 min
08.10.2012 21:32 22,3 C 7,7 C 7,5 C 75 % 0 % 1010 hPa 0,0 l/m 0,0 km/h (0 Bft) 0 min
08.10.2012 21:35 22,3 C 7,6 C 7,5 C 76 % 0 % 1010 hPa 0,0 l/m 0,0 km/h (0 Bft) 0 min
08.10.2012 21:38 22,3 C 7,6 C 8,0 C 76 % 0 % 1010 hPa 0,0 l/m 0,0 km/h (0 Bft) 0 min
08.10.2012 21:41 22,3 C 7,6 C 7,8 C 76 % 0 % 1010 hPa 0,0 l/m 0,0 km/h (0 Bft) 0 min
08.10.2012 21:44 22,4 C 7,6 C 7,8 C 76 % 0 % 1010 hPa 0,0 l/m 0,0 km/h (0 Bft) 0 min
08.10.2012 21:47 22,4 C 7,6 C 7,9 C 76 % 0 % 1010 hPa 0,0 l/m 0,0 km/h (0 Bft) 0 min
08.10.2012 21:50 22,4 C 7,6 C 7,9 C 76 % 0 % 1010 hPa 0,0 l/m 0,0 km/h (0 Bft) 0 min
08.10.2012 21:53 22,4 C 7,6 C 7,9 C 77 % 0 % 1010 hPa 0,0 l/m 0,0 km/h (0 Bft) 0 min
08.10.2012 21:56 22,4 C 7,5 C 7,5 C 77 % 0 % 1010 hPa 0,0 l/m 0,0 km/h (0 Bft) 0 min
08.10.2012 21:59 22,4 C 7,4 C 7,4 C 77 % 0 % 1010 hPa 0,0 l/m 0,0 km/h (0 Bft) 0 min
08.10.2012 22:02 22,4 C 7,2 C 7,7 C 78 % 0 % 1010 hPa 0,0 l/m 0,0 km/h (0 Bft) 0 min
08.10.2012 22:05 22,4 C 7,2 C 7,7 C 78 % 0 % 1010 hPa 0,0 l/m 0,0 km/h (0 Bft) 0 min
08.10.2012 22:08 22,4 C 7,2 C 7,7 C 78 % 0 % 1010 hPa 0,0 l/m 0,0 km/h (0 Bft) 0 min
08.10.2012 22:11 22,4 C 7,3 C 8,1 C 78 % 0 % 1010 hPa 0,0 l/m 0,0 km/h (0 Bft) 0 min
08.10.2012 22:14 22,4 C 7,3 C 7,7 C 78 % 0 % 1010 hPa 0,0 l/m 0,0 km/h (0 Bft) 0 min
08.10.2012 22:17 22,4 C 7,2 C 7,2 C 78 % 0 % 1010 hPa 0,0 l/m 0,0 km/h (0 Bft) 0 min
08.10.2012 22:20 22,4 C 7,1 C 7,5 C 78 % 0 % 1010 hPa 0,0 l/m 0,0 km/h (0 Bft) 0 min
08.10.2012 22:23 22,4 C 7,1 C 7,2 C 78 % 0 % 1010 hPa 0,0 l/m 0,0 km/h (0 Bft) 0 min
08.10.2012 22:26 22,3 C 6,9 C 7,3 C 80 % 0 % 1010 hPa 0,0 l/m 0,0 km/h (0 Bft) 0 min
08.10.2012 22:29 22,3 C 6,8 C 7,4 C 80 % 0 % 1010 hPa 0,0 l/m 0,0 km/h (0 Bft) 0 min
08.10.2012 22:32 22,3 C 6,7 C 7,2 C 80 % 0 % 1010 hPa 0,0 l/m 0,0 km/h (0 Bft) 0 min
08.10.2012 22:35 22,3 C 6,7 C 7,3 C 80 % 0 % 1010 hPa 0,0 l/m 0,0 km/h (0 Bft) 0 min
08.10.2012 22:38 22,3 C 6,8 C 7,2 C 80 % 0 % 1010 hPa 0,0 l/m 0,0 km/h (0 Bft) 0 min
08.10.2012 22:41 22,3 C 6,8 C 7,6 C 80 % 0 % 1010 hPa 0,0 l/m 0,0 km/h (0 Bft) 0 min
08.10.2012 22:44 22,3 C 6,8 C 7,6 C 80 % 0 % 1010 hPa 0,0 l/m 0,3 km/h (0 Bft) 0 min
08.10.2012 22:47 22,3 C 6,7 C 7,1 C 80 % 0 % 1010 hPa 0,0 l/m 0,0 km/h (0 Bft) 0 min
08.10.2012 22:50 22,3 C 6,6 C 7,1 C 81 % 0 % 1010 hPa 0,0 l/m 0,0 km/h (0 Bft) 0 min
08.10.2012 22:53 22,3 C 6,6 C 7,2 C 81 % 0 % 1010 hPa 0,0 l/m 0,0 km/h (0 Bft) 0 min
08.10.2012 22:56 22,3 C 6,6 C 7,4 C 81 % 0 % 1010 hPa 0,0 l/m 0,0 km/h (0 Bft) 0 min
08.10.2012 22:59 22,2 C 6,6 C 7,5 C 81 % 0 % 1010 hPa 0,0 l/m 0,0 km/h (0 Bft) 0 min
08.10.2012 23:02 22,2 C 6,7 C 7,7 C 81 % 0 % 1010 hPa 0,0 l/m 0,0 km/h (0 Bft) 0 min
08.10.2012 23:05 22,2 C 6,6 C 7,9 C 81 % 0 % 1010 hPa 0,0 l/m 0,0 km/h (0 Bft) 0 min
08.10.2012 23:08 22,2 C 6,6 C 8,1 C 82 % 0 % 1010 hPa 0,0 l/m 0,0 km/h (0 Bft) 0 min
08.10.2012 23:11 22,2 C 6,6 C 8,2 C 83 % 0 % 1010 hPa 0,0 l/m 0,0 km/h (0 Bft) 0 min
08.10.2012 23:14 22,2 C 6,6 C 8,6 C 84 % 0 % 1010 hPa 0,0 l/m 0,0 km/h (0 Bft) 0 min
08.10.2012 23:17 22,2 C 6,6 C 8,5 C 85 % 0 % 1010 hPa 0,0 l/m 0,0 km/h (0 Bft) 0 min
08.10.2012 23:20 22,2 C 6,6 C 8,0 C 84 % 0 % 1010 hPa 0,0 l/m 0,0 km/h (0 Bft) 0 min
08.10.2012 23:23 22,2 C 6,6 C 7,8 C 84 % 0 % 1010 hPa 0,0 l/m 0,0 km/h (0 Bft) 0 min
08.10.2012 23:26 22,2 C 6,6 C 7,5 C 83 % 0 % 1009 hPa 0,0 l/m 0,0 km/h (0 Bft) 0 min
08.10.2012 23:29 22,2 C 6,6 C 7,7 C 83 % 0 % 1009 hPa 0,0 l/m 0,0 km/h (0 Bft) 0 min
08.10.2012 23:32 22,2 C 6,6 C 7,7 C 83 % 0 % 1009 hPa 0,0 l/m 0,0 km/h (0 Bft) 0 min
08.10.2012 23:35 22,1 C 6,6 C 7,7 C 83 % 0 % 1009 hPa 0,0 l/m 0,0 km/h (0 Bft) 0 min
08.10.2012 23:38 22,2 C 6,5 C 7,5 C 83 % 0 % 1009 hPa 0,0 l/m 0,0 km/h (0 Bft) 0 min
08.10.2012 23:41 22,2 C 6,5 C 7,4 C 83 % 0 % 1009 hPa 0,0 l/m 0,0 km/h (0 Bft) 0 min
08.10.2012 23:44 22,1 C 6,5 C 7,3 C 83 % 0 % 1009 hPa 0,0 l/m 0,0 km/h (0 Bft) 0 min
08.10.2012 23:47 22,1 C 6,5 C 7,2 C 83 % 0 % 1009 hPa 0,0 l/m 0,0 km/h (0 Bft) 0 min
08.10.2012 23:50 22,1 C 6,4 C 7,7 C 83 % 0 % 1009 hPa 0,0 l/m 0,0 km/h (0 Bft) 0 min
08.10.2012 23:53 22,1 C 6,4 C 8,0 C 83 % 0 % 1009 hPa 0,0 l/m 0,0 km/h (0 Bft) 0 min
08.10.2012 23:56 22,1 C 6,4 C 8,0 C 84 % 0 % 1009 hPa 0,0 l/m 0,0 km/h (0 Bft) 0 min
08.10.2012 23:59 22,1 C 6,5 C 8,0 C 84 % 0 % 1008 hPa 0,0 l/m 0,0 km/h (0 Bft) 0 min
_ Min-Zeit 10:44 08:23 07:26 15:38 - 23:59 - 04:20 -
Minimum _ 18,7 C 4,9 C 6,1 C 59 % - 1008 hPa - 0,0 km/h (0 Bft) -
_ Max-Zeit 17:32 14:53 12:02 08:38 12:44 00:04 00:01 15:14 11:41
Maximum _ 22,8 C 12,6 C 25,5 C 99 % 100 % 1017 hPa 0,0 l/m 15,5 km/h
O (3 Bft)
3 min
Durchschnitt _ 22,2 C 8,5 C 10,0 C 82 % #3:57 h 1014 hPa #0,0 l/m 2,6 km/h (1 Bft) #3:57 h